• en Suisse
  • Liste des pays
  • À 7 jours
  • Température de l'eau
  • Carte satellitaire
  • Carte météo
  • Widgets météo
  • user-avatar
    Se connecter

    Météo par heure à Fedurino

    Ce jour, 19 Juin, Mardi

    Heure Température Précipitation Vent Pression Humidité
    00:00 +17°C° 0 mm 2 m/s 747 mmHg 94%
    01:00 +16°C° 0 mm 2 m/s 747 mmHg 95%
    02:00 +16°C° 0 mm 2 m/s 747 mmHg 96%
    03:00 +17°C° 0 mm 2 m/s 747 mmHg 95%
    04:00 +17°C° 0 mm 2 m/s 747 mmHg 93%
    05:00 +18°C° 0 mm 2 m/s 747 mmHg 92%
    06:00 +19°C° 0 mm 2 m/s 747 mmHg 85%
    07:00 +21°C° 0 mm 2 m/s 747 mmHg 79%
    08:00 +23°C° 0 mm 2 m/s 747 mmHg 72%
    09:00 +25°C° 0 mm 2 m/s 746 mmHg 65%
    10:00 +26°C° 0 mm 3 m/s 746 mmHg 57%
    11:00 +27°C° 0 mm 3 m/s 746 mmHg 50%
    12:00 +27°C° 0 mm 3 m/s 746 mmHg 50%
    13:00 +28°C° 0 mm 4 m/s 745 mmHg 50%
    14:00 +28°C° 0 mm 4 m/s 745 mmHg 49%
    15:00 +27°C° 0 mm 4 m/s 745 mmHg 53%
    16:00 +27°C° 0 mm 4 m/s 744 mmHg 56%
    17:00 +26°C° 0 mm 4 m/s 744 mmHg 60%
    18:00 +24°C° 0,1 mm 3 m/s 744 mmHg 65%
    19:00 +21°C° 0,1 mm 3 m/s 744 mmHg 71%
    20:00 +20°C° 0,1 mm 3 m/s 744 mmHg 76%
    21:00 +19°C° 0 mm 3 m/s 743 mmHg 77%
    22:00 +18°C° 0 mm 3 m/s 743 mmHg 77%
    23:00 +17°C° 0 mm 3 m/s 743 mmHg 78%

    Demain, 20 Juin, Mercredi

    Heure Température Précipitation Vent Pression Humidité
    00:00 +17°C° 0,1 mm 4 m/s 744 mmHg 80%
    01:00 +17°C° 0,1 mm 4 m/s 744 mmHg 82%
    02:00 +15°C° 0,1 mm 5 m/s 744 mmHg 84%
    03:00 +14°C° 0 mm 5 m/s 745 mmHg 83%
    04:00 +14°C° 0 mm 4 m/s 745 mmHg 82%
    05:00 +13°C° 0 mm 4 m/s 745 mmHg 81%
    06:00 +14°C° 0 mm 4 m/s 746 mmHg 72%
    07:00 +15°C° 0 mm 5 m/s 746 mmHg 63%
    08:00 +17°C° 0 mm 5 m/s 746 mmHg 54%
    09:00 +19°C° 0 mm 5 m/s 746 mmHg 50%
    10:00 +20°C° 0 mm 5 m/s 746 mmHg 45%
    11:00 +21°C° 0 mm 5 m/s 746 mmHg 41%
    12:00 +22°C° 0 mm 5 m/s 746 mmHg 41%
    13:00 +22°C° 0 mm 6 m/s 746 mmHg 41%
    14:00 +23°C° 0 mm 6 m/s 745 mmHg 41%
    15:00 +23°C° 0 mm 5 m/s 745 mmHg 44%
    16:00 +22°C° 0 mm 5 m/s 745 mmHg 47%
    17:00 +22°C° 0 mm 4 m/s 745 mmHg 50%
    18:00 +21°C° 0 mm 4 m/s 745 mmHg 56%
    19:00 +19°C° 0 mm 3 m/s 745 mmHg 63%
    20:00 +17°C° 0 mm 3 m/s 745 mmHg 69%
    21:00 +16°C° 0 mm 3 m/s 746 mmHg 71%
    22:00 +14°C° 0 mm 3 m/s 746 mmHg 74%
    23:00 +14°C° 0 mm 2 m/s 746 mmHg 76%

    Après-demain, 21 Juin, Jeudi

    Heure Température Précipitation Vent Pression Humidité
    00:00 +13°C° 0 mm 2 m/s 746 mmHg 78%
    01:00 +13°C° 0 mm 2 m/s 746 mmHg 80%
    02:00 +12°C° 0 mm 2 m/s 746 mmHg 82%
    03:00 +13°C° 0 mm 2 m/s 746 mmHg 79%
    04:00 +13°C° 0 mm 2 m/s 746 mmHg 76%
    05:00 +14°C° 0 mm 2 m/s 746 mmHg 73%
    06:00 +14°C° 0 mm 3 m/s 746 mmHg 68%
    07:00 +17°C° 0 mm 3 m/s 746 mmHg 63%
    08:00 +19°C° 0 mm 3 m/s 746 mmHg 57%
    09:00 +19°C° 0 mm 4 m/s 746 mmHg 57%
    10:00 +20°C° 0 mm 4 m/s 746 mmHg 56%
    11:00 +21°C° 0 mm 4 m/s 746 mmHg 55%
    12:00 +22°C° 0 mm 4 m/s 746 mmHg 56%
    13:00 +23°C° 0 mm 4 m/s 746 mmHg 57%
    14:00 +25°C° 0 mm 4 m/s 745 mmHg 57%
    15:00 +25°C° 0,1 mm 4 m/s 745 mmHg 59%
    16:00 +25°C° 0,1 mm 3 m/s 745 mmHg 61%
    17:00 +25°C° 0,1 mm 3 m/s 745 mmHg 63%
    18:00 +23°C° 0,1 mm 2 m/s 745 mmHg 71%
    19:00 +21°C° 0,1 mm 2 m/s 745 mmHg 78%
    20:00 +20°C° 0,1 mm 1 m/s 745 mmHg 86%
    21:00 +18°C° 0 mm 2 m/s 745 mmHg 88%
    22:00 +18°C° 0 mm 2 m/s 745 mmHg 91%
    23:00 +17°C° 0 mm 2 m/s 745 mmHg 94%

    22 Juin, Vendredi

    Heure Température Précipitation Vent Pression Humidité
    00:00 +17°C° 0 mm 2 m/s 744 mmHg 94%
    01:00 +16°C° 0 mm 3 m/s 744 mmHg 95%
    02:00 +16°C° 0 mm 3 m/s 744 mmHg 96%
    03:00 +17°C° 0 mm 3 m/s 744 mmHg 93%
    04:00 +17°C° 0 mm 4 m/s 743 mmHg 90%
    05:00 +18°C° 0 mm 4 m/s 743 mmHg 87%
    06:00 +19°C° 0 mm 5 m/s 743 mmHg 80%
    07:00 +21°C° 0 mm 5 m/s 742 mmHg 73%
    08:00 +23°C° 0 mm 6 m/s 742 mmHg 66%
    09:00 +24°C° 0 mm 6 m/s 742 mmHg 62%
    10:00 +26°C° 0 mm 7 m/s 742 mmHg 58%
    11:00 +27°C° 0 mm 7 m/s 741 mmHg 55%
    12:00 +28°C° 0,1 mm 7 m/s 741 mmHg 55%
    13:00 +28°C° 0,1 mm 7 m/s 741 mmHg 56%
    14:00 +28°C° 0,1 mm 6 m/s 740 mmHg 57%
    15:00 +28°C° 0,2 mm 6 m/s 740 mmHg 61%
    16:00 +27°C° 0,2 mm 6 m/s 740 mmHg 64%
    17:00 +27°C° 0,2 mm 5 m/s 740 mmHg 67%
    18:00 +25°C° 0,6 mm 5 m/s 740 mmHg 76%
    19:00 +22°C° 0,6 mm 4 m/s 741 mmHg 84%
    20:00 +20°C° 0,6 mm 3 m/s 741 mmHg 92%
    21:00 +19°C° 0,4 mm 2 m/s 741 mmHg 94%
    22:00 +18°C° 0,4 mm 2 m/s 741 mmHg 96%
    23:00 +18°C° 0,4 mm 1 m/s 741 mmHg 98%

    23 Juin, Samedi

    Heure Température Précipitation Vent Pression Humidité
    00:00 +18°C° 0,1 mm 1 m/s 741 mmHg 97%
    01:00 +16°C° 0,1 mm 1 m/s 741 mmHg 97%
    02:00 +16°C° 0,1 mm 1 m/s 741 mmHg 97%
    03:00 +16°C° 0,1 mm 1 m/s 742 mmHg 96%
    04:00 +16°C° 0,1 mm 1 m/s 742 mmHg 96%
    05:00 +16°C° 0,1 mm 1 m/s 742 mmHg 96%
    06:00 +15°C° 0,3 mm 2 m/s 742 mmHg 96%
    07:00 +15°C° 0,3 mm 2 m/s 742 mmHg 96%
    08:00 +15°C° 0,3 mm 2 m/s 742 mmHg 96%
    09:00 +15°C° 0,2 mm 2 m/s 742 mmHg 95%
    10:00 +14°C° 0,2 mm 2 m/s 743 mmHg 94%
    11:00 +14°C° 0,2 mm 2 m/s 743 mmHg 93%
    12:00 +14°C° 0,2 mm 2 m/s 743 mmHg 93%
    13:00 +14°C° 0,2 mm 2 m/s 743 mmHg 92%
    14:00 +14°C° 0,2 mm 1 m/s 743 mmHg 92%
    15:00 +14°C° 0,1 mm 1 m/s 743 mmHg 92%
    16:00 +13°C° 0,1 mm 1 m/s 743 mmHg 93%
    17:00 +13°C° 0,1 mm 1 m/s 743 mmHg 93%
    18:00 +13°C° 0,1 mm 1 m/s 743 mmHg 94%
    19:00 +13°C° 0,1 mm 1 m/s 743 mmHg 94%
    20:00 +13°C° 0,1 mm 1 m/s 743 mmHg 95%
    21:00 +13°C° 0,2 mm 2 m/s 743 mmHg 95%
    22:00 +13°C° 0,2 mm 2 m/s 743 mmHg 96%
    23:00 +12°C° 0,2 mm 2 m/s 743 mmHg 96%

    24 Juin, Dimanche

    Heure Température Précipitation Vent Pression Humidité
    00:00 +12°C° 0,4 mm 2 m/s 744 mmHg 96%
    01:00 +12°C° 0,4 mm 2 m/s 744 mmHg 96%
    02:00 +12°C° 0,4 mm 2 m/s 744 mmHg 96%
    03:00 +12°C° 0,1 mm 2 m/s 744 mmHg 96%
    04:00 +12°C° 0,1 mm 2 m/s 744 mmHg 96%
    05:00 +12°C° 0,1 mm 2 m/s 744 mmHg 96%
    06:00 +14°C° 0 mm 2 m/s 744 mmHg 90%
    07:00 +15°C° 0 mm 2 m/s 744 mmHg 84%
    08:00 +17°C° 0 mm 2 m/s 745 mmHg 78%
    09:00 +18°C° 0 mm 3 m/s 745 mmHg 69%
    10:00 +19°C° 0 mm 3 m/s 745 mmHg 60%
    11:00 +21°C° 0 mm 4 m/s 745 mmHg 51%
    12:00 +21°C° 0,1 mm 4 m/s 745 mmHg 52%
    13:00 +21°C° 0,1 mm 4 m/s 745 mmHg 52%
    14:00 +21°C° 0,1 mm 5 m/s 745 mmHg 52%
    15:00 +21°C° 0,1 mm 4 m/s 746 mmHg 56%
    16:00 +20°C° 0,1 mm 4 m/s 746 mmHg 59%
    17:00 +20°C° 0,1 mm 4 m/s 746 mmHg 63%
    18:00 +18°C° 0,1 mm 3 m/s 746 mmHg 70%
    19:00 +16°C° 0,1 mm 2 m/s 747 mmHg 78%
    20:00 +15°C° 0,1 mm 2 m/s 747 mmHg 86%
    21:00 +14°C° 0 mm 2 m/s 747 mmHg 89%
    22:00 +13°C° 0 mm 2 m/s 748 mmHg 91%
    23:00 +12°C° 0 mm 2 m/s 748 mmHg 94%
    Voir plus